Location: Blair Point
(11.6833°N, 92.7333°E)
Time: 15:18:13
(UTC+00:00)

Daily predictions for brighter satellites

Satellite Brightness Start Highest point End
(mag) Time Altitude Azimuth Time Altitude Azimuth Time Altitude Azimuth
Cosmos 2292 Rocket 2.9 12:36:20 10° S 12:39:16 52° E 12:42:40 10° NNE
Cosmos 1892 Rocket 4.2 12:37:04 10° SSE 12:40:57 33° E 12:44:50 10° NNE
Hubble Space Telescope 1.6 12:38:20 10° SSW 12:42:00 30° SSE 12:45:38 10° E
CSL-04 Rocket 4.1 12:39:49 10° SSE 12:45:05 46° ENE 12:50:18 10° N
YAOGAN 1 2.5 12:47:03 10° SSE 12:51:21 84° ENE 12:55:40 10° N
GEOS 3 Rocket 4.5 12:47:00 10° ENE 12:51:29 28° ESE 12:55:54 10° S
Lacrosse 4 Rocket 3.4 12:48:47 10° NW 12:52:13 27° WSW 12:55:37 10° SSW
Okean-O 3.8 12:49:51 10° S 12:54:05 46° W 12:58:19 10° NNW
Okean 1-7 Rocket 4.1 12:50:43 10° SSE 12:54:59 40° E 12:59:14 10° NNE
Meteor 1-16 Rocket 4.3 12:49:41 10° N 12:55:03 58° E 13:00:34 10° SSE
Cosmos 2297 Rocket 2.7 12:55:43 10° NNW 13:01:17 63° WSW 13:06:51 10° S
Cosmos 2322 Rocket 2.1 12:57:41 10° S 13:03:15 70° ESE 13:08:48 10° NNE
H-2A R/B 2.7 12:59:16 10° SE 13:04:13 39° ENE 13:09:13 10° N
Cosmos 990 Rocket 4.3 12:59:58 10° N 13:04:53 45° ENE 13:09:17 13° SSE
Intelsat 5-1 Rocket 2.1 13:02:10 10° WNW 13:08:19 63° NNE 13:10:20 20° E
Meteor 2-5 Rocket 4.1 13:03:10 10° SSW 13:08:49 70° W 13:14:37 10° N
Cosmos 1908 3.5 13:06:05 10° NNE 13:09:49 45° E 13:12:54 14° SSE
USA 186 3.4 13:09:58 18° E 13:10:34 19° ENE 13:13:01 10° NNE
Cosmos 1953 3.4 13:09:10 10° NNW 13:13:01 47° W 13:16:53 10° SSW
BREEZE M DEB (TANK) 3.8 13:13:52 10° S 13:20:07 - NE 13:13:59 11° S
CZ-3A R/B 4.1 12:48:49 10° SW 13:20:08 47° SSE 13:26:03 20° ESE
USA 234 4.3 13:15:19 10° SSE 13:21:21 40° SW 13:27:23 10° WNW
SJ 16-02 1.6 13:19:07 10° NNW 13:23:29 70° WSW 13:27:40 11° S
Cosmos 1809 Rocket 4.4 13:20:53 10° S 13:27:05 88° E 13:33:15 10° N
OAO 3 Copernicus 4.2 13:22:14 10° SW 13:27:18 82° SE 13:32:23 10° ENE
FREGAT/IRIS 4.3 13:28:37 17° NE 13:28:37 17° NE 13:29:37 10° NNE
SL-24 R/B - RUBIN 2 4.2 13:24:36 10° S 13:29:34 49° ESE 13:35:11 10° NE
Milstar 3 Cent rocket 2.6 13:25:06 10° NW 13:29:35 49° NNE 13:32:54 23° E
Cosmos 2228 2.9 13:25:25 10° N 13:29:45 68° E 13:32:27 23° SSE
CZ-4 R/B 4.1 13:28:02 10° SW 13:30:47 18° W 13:33:31 10° WNW
Cosmos 1606 Rocket 3.5 13:28:21 10° N 13:32:49 77° E 13:35:39 22° S
SL-14 R/B 4.5 13:30:27 10° SSW 13:34:06 42° W 13:37:48 10° NNW
MOS 1 Rocket 4.2 13:29:50 10° N 13:34:43 56° WNW 13:39:52 10° SSW
Cosmos 1937 Rocket 3.5 13:30:03 10° N 13:35:17 64° ENE 13:37:55 29° SSE
SJ-6B 3.6 13:35:48 33° ENE 13:35:48 33° ENE 13:39:18 10° NNE
Myojo/LAPS 3.6 13:38:26 10° W 13:40:57 40° SSW 13:41:15 39° S
Cosmos 2360 Rocket 2.0 13:35:42 10° S 13:41:17 78° ESE 13:46:54 10° NNE
Cosmos 2082 4.1 13:35:58 10° NNW 13:41:28 59° WSW 13:46:02 15° S
Cosmos 1300 4.0 13:38:44 10° NNE 13:41:03 26° NE 13:41:03 26° NE
Cosmos 2227 Rocket 4.1 13:39:39 10° NW 13:44:14 26° WSW 13:48:48 10° SSW
Delta 142 4.0 13:43:34 10° NW 13:48:08 45° NNE 13:49:02 39° ENE
Cosmos 2333 Rocket 4.1 13:51:56 14° NE 13:51:56 14° NE 13:52:52 10° NE
Cosmos 1602 Rocket 3.5 13:51:04 57° E 13:51:04 57° E 13:55:20 10° NNE
SL-08 R/B 4.4 13:47:25 19° S 13:52:02 67° E 13:58:13 10° N
Cosmos 2263 Rocket 3.2 13:49:07 10° NNE 13:53:24 27° ENE 13:53:24 27° ENE
CZ-2C R/B 4.3 13:53:37 10° S 13:59:07 44° W 14:04:33 10° NNW
Cosmos 372 Rocket 4.5 13:54:23 10° N 13:59:04 42° ENE 13:59:04 42° ENE
ARGOS 3.4 13:56:36 25° S 13:59:48 67° WSW 14:05:10 10° NNW
Cosmos 1726 Rocket 4.3 13:59:51 10° NNW 14:04:10 51° W 14:05:54 32° SSW
MetOp-A 4.1 14:04:50 58° E 14:05:05 59° ENE 14:10:20 10° N
GPS 2-15 Rocket1 4.4 14:02:05 10° WNW 14:06:35 35° N 14:07:48 30° NE
USA 215 4.0 14:02:26 10° NNE 14:08:44 53° NW 14:15:02 10° SW
Cosmos 1356 Rocket 3.9 14:05:51 10° N 14:09:04 51° N 14:09:04 51° N
SL-08 RB Rocket 3.9 14:10:06 56° SW 14:10:41 63° W 14:15:05 10° NNW
Resurs 01 Rocket 3.7 14:15:25 17° NNE 14:15:25 17° NNE 14:16:37 10° NNE
ATLAS 5 CENTAUR R/B 4.2 14:12:26 10° WSW 14:15:06 17° WNW 14:17:48 10° NNW
CZ-2C R/B 4.4 14:13:45 10° NNW 14:18:14 29° WNW 14:22:40 10° SW
ATLAS CENTAUR R/B 4.4 14:17:23 10° NNE 14:18:02 14° NNE 14:18:02 14° NNE
Cosmos 1745 Rocket 3.8 14:21:55 64° S 14:22:57 89° E 14:29:09 10° N
Hubble Space Telescope 2.1 14:19:09 10° W 14:22:19 39° WNW 14:22:19 39° WNW
Ariane Rocket 4.5 14:28:51 26° SW 14:30:32 32° W 14:35:02 10° NW
Centaur Rocket 4.5 14:43:58 10° WNW 14:54:38 58° W 14:54:38 58° W
USA 229 DEB 4.5 14:56:06 10° NW 15:03:23 49° WSW 15:03:44 49° WSW
USA 229 4.5 14:56:10 10° NW 15:03:28 50° WSW 15:03:48 49° WSW
NOSS 3-1 (A) 4.5 15:05:39 10° NNW 15:14:09 63° WSW 15:14:09 63° WSW
Cosmos 2219 Rocket 4.3 15:25:53 22° NNW 15:25:53 22° NNW 15:28:15 10° N
Cosmos 2333 Rocket 4.4 15:33:48 21° NW 15:33:48 21° NW 15:36:44 10° NNW
Centaur D-1AR AC-40 3.8 14:21:35 10° WSW 15:32:02 85° WSW 15:32:02 85° WSW
CZ-3B R/B 4.3 20:00:48 45° ENE 20:00:48 45° ENE 20:04:22 10° ENE
CZ-4C R/B 4.0 20:10:16 10° NNW 20:15:19 42° N 20:15:19 42° N
CZ-3A R/B 4.4 20:43:53 12° NE 20:43:53 12° NE 20:45:37 10° ENE
Meteor 2-4 Rocket 4.5 20:48:49 10° N 20:53:32 51° NE 20:53:32 51° NE
Hubble Space Telescope 2.9 21:11:34 25° NE 21:11:34 25° NE 21:14:28 10° E
Palapa B4 Rocket 3.9 21:20:06 52° ESE 21:20:06 52° ESE 21:24:54 10° ESE
ERS-2 4.1 21:22:04 25° NNE 21:22:04 25° NNE 21:23:56 10° N
SWIFT 4.2 21:22:29 24° N 21:22:29 24° N 21:25:45 10° NE
CZ-2C R/B 2.8 21:19:43 10° NNE 21:24:18 51° E 21:24:31 51° ESE
Cosmos 2082 Rocket 2.6 21:26:00 51° NW 21:26:00 51° NW 21:30:43 10° N
Cosmos 1850 Rocket 4.2 21:27:36 61° SE 21:28:12 67° ESE 21:33:29 10° NNE
Cosmos 1908 Rocket 3.9 21:29:31 62° ENE 21:29:31 62° ENE 21:33:39 10° NNE
IDEFIX/ARIANE 42P 4.2 21:30:19 10° NNW 21:32:31 21° NW 21:32:31 21° NW
CBERS 1 LM4 rocket 4.2 21:34:46 10° N 21:39:25 78° WNW 21:39:25 78° WNW
Cosmos 1741 Rocket 3.9 21:40:01 64° S 21:40:50 89° ESE 21:46:02 10° NNE
ADEOS 3.8 21:38:05 10° NNE 21:43:16 68° ESE 21:45:28 35° S
Cosmos 1513 Rocket 4.3 21:41:47 35° S 21:44:31 88° E 21:50:37 10° N
Cosmos 1975 3.5 21:47:40 36° SSE 21:48:58 53° E 21:52:52 10° NNE
ATLAS 2A CENTAUR R/B 3.0 21:51:35 16° NNW 21:52:06 17° N 21:55:07 10° NE
ARIANE 5 R/B 4.0 21:54:09 17° SSE 21:54:54 18° SSE 22:00:28 10° ESE
ARIANE 44LP R/B 3.6 21:59:42 27° S 21:59:42 27° S 22:01:35 10° SE
USA 238 DEB 3.7 21:56:35 24° SSW 22:00:43 72° ESE 22:07:18 10° NNE
USA 238 3.7 21:56:39 24° SSW 22:00:48 71° ESE 22:07:23 10° NNE
ALOS 3.6 21:57:15 10° NNE 22:01:34 38° E 22:05:52 10° SSE
Delta 168 4.2 22:03:34 33° SSW 22:03:34 33° SSW 22:07:13 10° SSE
Cosmos 1066 Rocket 4.3 21:57:14 10° N 22:03:06 86° E 22:08:56 10° S
CZ-3A R/B 3.0 22:07:15 36° WSW 22:09:08 85° NNW 22:27:12 10° ENE
H-2A R/B 2.8 22:11:40 33° W 22:11:40 33° W 22:15:29 10° NW
Centaur AC-72 3.5 22:09:06 14° WNW 22:14:44 49° N 22:21:02 10° ENE
CZ-4B R/B 4.0 22:11:59 10° NNE 22:15:56 45° E 22:20:04 10° S
Cosmos 220 Rocket 3.9 22:12:52 10° NNW 22:16:59 56° WSW 22:21:05 10° S
ARIANE 5 R/B 4.2 22:14:05 22° WSW 22:19:28 31° SSW 22:23:25 10° SE
CZ-4B R/B 1.5 22:19:15 10° SSE 22:22:33 74° E 22:25:56 10° N
Fermi 4.0 22:21:37 29° SW 22:23:28 58° SSE 22:27:33 10° ENE
FENGYUN 3A 3.7 22:20:59 10° NNE 22:26:25 84° ESE 22:31:49 10° S
CCE 1 Rocket 4.5 22:18:23 10° WNW 22:27:10 63° SSW 22:32:02 10° SE
Cosmos 1544 4.0 22:27:20 26° W 22:27:44 27° W 22:30:50 10° NNW
Meteor 1-31 Rocket 2.8 22:25:14 10° N 22:29:07 64° WNW 22:32:20 14° SSW
Cosmos 1263 4.2 22:26:26 10° NNW 22:29:22 54° W 22:32:36 10° S
Cosmos 1378 3.2 22:30:33 10° NNW 22:34:12 54° W 22:37:51 10° S
Cosmos 2034 Rocket 4.4 22:32:03 11° SSW 22:37:41 42° W 22:43:27 10° NNW
Cosmos 2369 4.2 22:32:13 10° N 22:37:53 67° ENE 22:43:34 10° SSE
SAR-Lupe-4 3.8 22:34:33 10° S 22:37:57 44° W 22:41:21 10° NNW
Cosmos 1634 Rocket 4.4 22:33:14 10° S 22:39:28 69° E 22:45:44 10° N
Sich 1 Rocket 3.9 22:35:11 10° SSW 22:39:37 50° W 22:44:03 10° N
CENTAUR R/B 2.3 22:35:35 10° SSW 22:40:47 77° ESE 22:46:33 10° NNE
H-2A R/B 4.4 15:34:27 10° W 22:41:24 80° SSW 22:48:08 10° SE
Cosmos 192 4.5 22:36:57 10° N 22:41:50 77° ENE 22:46:42 10° SSE
Cosmos 1656 3.9 22:36:50 10° NW 22:41:56 43° WSW 22:47:05 10° S
Cosmos 1484 Rocket 3.4 22:41:57 10° N 22:45:29 35° WNW 22:48:51 11° SW
GPS 2-12 Rocket1 4.0 22:43:12 10° WNW 22:47:31 45° NNE 22:51:45 10° E
Hubble Space Telescope 0.8 22:48:10 10° WNW 22:52:15 63° SSW 22:56:20 10° SE
DELTA 2 R/B (1) 3.6 22:46:51 10° NW 22:52:28 85° SW 22:58:04 10° SE
Intercosmos 25 Rocket 4.5 22:49:45 10° N 22:54:33 79° W 23:02:45 10° S
Cosmos 1300 Rocket 3.6 22:51:08 10° SSW 22:55:32 65° W 22:59:55 10° N
Cosmos 1980 Rocket 3.1 22:53:30 10° N 22:59:02 55° ENE 23:04:32 10° SSE
NOSS 3-2 (C) 3.3 22:54:38 10° SW 22:59:53 55° WNW 23:05:24 10° NNE
Cosmos 2278 4.1 22:56:10 10° N 23:01:51 72° ENE 23:07:31 10° SSE
COSMOS 2487 4.3 22:59:07 10° SSE 23:02:12 32° E 23:05:18 10° NE
PSLV R/B 4.0 22:58:25 10° NNE 23:02:32 86° ESE 23:06:37 10° S
Orbus 7S? 4.3 22:59:35 10° NW 23:04:02 26° WSW 23:06:42 10° S
SWIFT 4.2 23:00:58 10° NW 23:04:37 27° N 23:08:17 10° ENE
Meteor PRIRODA 4.2 23:01:33 10° N 23:04:57 38° WNW 23:08:21 10° SSW
CZ-3B R/B 3.9 23:02:48 10° WNW 23:05:35 14° NNW 23:07:24 10° N
Cosmos 1689 Rocket 2.3 23:03:14 10° S 23:06:07 46° WSW 23:09:00 10° NNW
Okean O Rocket 3.7 23:02:34 10° NE 23:06:22 29° E 23:10:10 10° SSE
ADEOS Rocket 3.0 23:05:14 10° SSE 23:10:51 86° ENE 23:16:57 10° N
deb Olympus 3.5 23:09:09 10° WSW 23:12:58 33° S 23:15:36 10° ESE
